Daleville, AL

7:04 AM CDT on September 29, 2016 (GMT -0500)
Cairns Army Air Field

Weather History for KOZR - June, 2013

Change the Weather History Date:

Saturday, June 22, 2013

  Actual Average Record
Temperature  
Mean Temperature 78 °F -  
Max Temperature 89 °F 85 °F 100 °F (1998)
Min Temperature 67 °F 66 °F 66 °F (2007)
Cooling Degree Days 12    
Growing Degree Days 28 (Base 50)    
Moisture  
Dew Point 69 °F    
Average Humidity 74    
Maximum Humidity 94    
Minimum Humidity 55    
Precipitation  
Precipitation 0.00 in - - ()
Sea Level Pressure  
Sea Level Pressure 30.11 in    
Wind  
Wind Speed 6 mph (ENE)    
Max Wind Speed 14 mph    
Max Gust Speed -    
Visibility 10 miles    
Events Thunderstorm    
Averages and records for this station are not official NWS values.
T = Trace of Precipitation, MM = Missing Value Source: NWS Daily Summary

Daily Weather History Graph

Daily Weather History Graph

Search for Another Location

Airport or City:

Trip Planner

Search our weather history database for the weather conditions in past years. The results will help you decide how hot, cold, wet, or windy it might be!

Date:

Astronomy

Jun. 22, 2013 Rise Set
Actual Time 5:39 AM CDT 7:50 PM CDT
Civil Twilight 5:11 AM CDT 8:18 PM CDT
Nautical Twilight 4:37 AM CDT 8:52 PM CDT
Astronomical Twilight 4:00 AM CDT 9:29 PM CDT
Moon 7:08 PM CDT (6/22) 4:47 AM CDT (6/22)
Length of Visible Light 15h 07m
Length of Day
14h 11m
Waxing Gibbous, 99% of the Moon is Illuminated
Jun 22
Waxing Gibbous
Jun 23
Full
Jun 29
Last Quarter
Jul 8
New
Jul 15
First Quarter

Hourly Weather History & Observations

Time (CDT) Temp. Heat Index Dew Point Humidity Pressure Visibility Wind Dir Wind Speed Gust Speed Precip Events Conditions
12:58 AM 71.1 °F - 65.3 °F 82% 30.11 in 10.0 mi East 4.6 mph - N/A   Clear
1:58 AM 69.1 °F - 65.7 °F 89% 30.12 in 10.0 mi NNE 3.5 mph - N/A   Clear
2:58 AM 68.5 °F - 65.5 °F 90% 30.10 in 10.0 mi NE 5.8 mph - N/A   Clear
3:58 AM 68.5 °F - 65.1 °F 89% 30.10 in 10.0 mi NE 5.8 mph - N/A   Clear
4:58 AM 67.5 °F - 65.1 °F 92% 30.10 in 10.0 mi NE 5.8 mph - N/A   Clear
5:58 AM 67.3 °F - 65.5 °F 94% 30.12 in 10.0 mi NE 4.6 mph - N/A   Clear
6:58 AM 71.4 °F - 67.8 °F 88% 30.13 in 10.0 mi NE 5.8 mph - N/A   Clear
7:58 AM 75.2 °F - 69.1 °F 81% 30.15 in 10.0 mi NE 6.9 mph - N/A   Clear
8:58 AM 79.7 °F - 70.0 °F 72% 30.15 in 10.0 mi ENE 8.1 mph - N/A   Clear
9:58 AM 81.9 °F 85.2 °F 69.3 °F 65% 30.15 in 10.0 mi East 5.8 mph - N/A   Scattered Clouds
10:03 AM 82.4 °F 86.3 °F 69.8 °F 66% 30.15 in 10.0 mi East 9.2 mph - N/A   Mostly Cloudy
10:13 AM 82.4 °F 86.3 °F 69.8 °F 66% 30.15 in 10.0 mi East 9.2 mph - N/A   Mostly Cloudy
10:38 AM 82.4 °F 86.3 °F 69.8 °F 66% 30.15 in 10.0 mi ENE 10.4 mph - N/A   Mostly Cloudy
10:43 AM 84.2 °F 88.4 °F 69.8 °F 62% 30.15 in 10.0 mi East 8.1 mph - N/A   Mostly Cloudy
10:58 AM 84.4 °F 88.5 °F 69.6 °F 61% 30.15 in 10.0 mi East 8.1 mph - N/A   Mostly Cloudy
11:58 AM 84.4 °F 88.5 °F 69.4 °F 61% 30.15 in 10.0 mi Variable 5.8 mph - N/A   Mostly Cloudy
12:58 PM 86.5 °F 90.7 °F 69.3 °F 56% 30.13 in 10.0 mi East 6.9 mph - N/A   Mostly Cloudy
1:58 PM 87.3 °F 91.6 °F 69.3 °F 55% 30.11 in 10.0 mi NE 8.1 mph - N/A   Mostly Cloudy
2:58 PM 86.4 °F 90.7 °F 69.4 °F 57% 30.10 in 10.0 mi East 4.6 mph - N/A   Mostly Cloudy
3:58 PM 86.9 °F 91.0 °F 68.9 °F 55% 30.07 in 10.0 mi East 5.8 mph - N/A   Clear
4:58 PM 88.2 °F 94.1 °F 71.1 °F 57% 30.05 in 10.0 mi North 9.2 mph - N/A   Clear
5:58 PM 84.4 °F 88.7 °F 70.2 °F 62% 30.05 in 10.0 mi NE 13.8 mph - N/A   Scattered Clouds
6:28 PM 82.4 °F 86.3 °F 69.8 °F 66% 30.06 in 10.0 mi ENE 10.4 mph - N/A Thunderstorm Thunderstorm
6:58 PM 81.1 °F 84.7 °F 70.2 °F 69% 30.08 in 10.0 mi South 10.4 mph - N/A Thunderstorm Thunderstorm
7:03 PM 77.0 °F - 69.8 °F 78% 30.08 in 10.0 mi SSW 4.6 mph - N/A Thunderstorm Thunderstorm
7:08 PM 77.0 °F - 69.8 °F 78% 30.08 in 10.0 mi Variable 5.8 mph - N/A Thunderstorm Thunderstorm
7:19 PM 77.0 °F - 69.8 °F 78% 30.07 in 10.0 mi West 6.9 mph - N/A Thunderstorm Mostly Cloudy
7:23 PM 77.0 °F - 68.0 °F 74% 30.08 in 10.0 mi WSW 6.9 mph - N/A Thunderstorm Light Drizzle
7:34 PM 75.2 °F - 69.8 °F 83% 30.07 in 10.0 mi SSW 3.5 mph - N/A   Scattered Clouds
7:58 PM 75.4 °F - 69.6 °F 82% 30.07 in 10.0 mi ESE 6.9 mph - 0.00 in   Clear
8:58 PM 74.5 °F - 70.5 °F 87% 30.08 in 10.0 mi ENE 4.6 mph - N/A   Overcast
9:58 PM 74.3 °F - 70.3 °F 87% 30.10 in 10.0 mi ENE 4.6 mph - N/A   Mostly Cloudy
10:58 PM 73.9 °F - 69.8 °F 87% 30.09 in 10.0 mi NE 2.3 mph - N/A   Clear
11:58 PM 72.9 °F - 69.8 °F 90% 30.10 in 10.0 mi NE 4.6 mph - N/A   Clear